Theta_e
305 307 309 309 308 307 306 308 308 303 304 302 303 304 305 306 305 305 304 304 306 309 313 311 312 313 312 315 318 322 326 325 325 319 321 322 323 323 328 332 335 339 339 339 333
306 306 308 309 308 306 306 307 308 306 305 301 302 303 304 305 305 305 306 307 311 309 310 311 310 313 313 316 318 322 325 324 322 324 324 323 323 322 329 332 338 339 339 341 339
307 307 308 309 307 306 306 305 307 307 304 301 301 301 301 303 305 306 306 306 306 306 306 308 309 312 313 315 318 318 325 324 324 325 325 325 323 323 325 325 329 340 340 342 342
306 307 306 309 307 306 306 303 306 307 305 301 302 301 301 304 305 305 304 307 307 306 306 308 308 310 312 315 316 320 319 323 323 323 324 324 323 323 324 325 330 338 339 339 340
306 306 307 307 308 306 306 303 307 306 306 301 301 300 304 306 306 305 305 304 305 305 305 306 307 309 311 313 315 318 319 319 322 323 323 324 323 323 323 326 326 327 339 339 336
306 305 304 306 306 305 305 305 304 306 308 302 301 300 304 305 304 305 304 305 306 305 305 307 306 308 310 312 314 317 318 319 322 323 322 323 323 324 323 330 331 331 332 338 338
307 305 304 306 306 305 305 305 303 306 307 303 301 301 302 303 305 304 304 306 306 306 305 308 308 307 310 313 315 316 320 318 321 322 323 321 324 325 324 326 330 331 335 336 339
307 305 303 306 305 304 304 303 303 304 304 301 301 302 303 304 304 304 303 305 306 306 304 306 306 306 311 313 314 316 319 323 322 321 322 321 326 320 323 322 330 329 333 336 338
308 304 303 305 304 303 302 304 304 302 300 299 302 304 304 304 305 304 304 306 306 306 305 305 307 308 310 314 315 317 320 321 325 321 321 320 320 319 320 323 320 329 328 333 335
308 304 303 302 304 302 304 304 302 304 305 305 305 305 304 304 304 304 305 305 306 306 306 307 308 308 309 313 316 319 319 319 322 321 320 320 321 320 320 321 321 324 326 328 331
307 303 303 301 300 303 304 305 307 306 305 305 304 304 304 303 301 303 305 305 306 306 306 306 309 311 310 313 314 316 317 318 321 320 319 321 320 319 320 320 321 320 323 324 325
307 303 303 301 301 304 305 306 305 305 306 305 305 305 304 304 305 305 305 306 307 307 306 309 310 309 308 312 314 315 318 319 321 320 320 320 321 321 321 321 322 320 320 322 323
306 303 302 300 304 304 305 305 305 303 306 307 306 305 304 304 305 304 305 306 306 307 308 312 312 312 312 315 317 317 318 318 321 321 319 318 319 319 318 320 321 321 322 322 322
305 303 301 304 305 304 305 305 304 302 298 306 306 306 306 306 304 305 306 307 306 308 310 313 312 313 314 316 315 317 316 317 320 321 323 320 321 317 317 316 317 319 320 320 322
304 302 301 305 305 305 305 304 301 305 296 304 306 306 306 306 306 305 307 308 310 311 312 312 315 315 316 316 315 317 317 319 319 319 318 321 319 316 313 317 315 316 320 321 320
303 302 302 305 305 305 304 302 305 297 301 302 306 307 308 308 308 307 308 308 309 311 311 312 311 313 313 315 315 316 318 318 318 318 320 318 318 315 313 316 316 314 318 321 320
301 304 305 305 305 304 302 305 299 300 304 304 304 307 308 309 310 309 310 311 312 309 310 311 311 311 313 315 315 316 316 319 319 317 316 314 318 317 313 311 313 313 316 318 318
303 305 305 306 304 304 306 299 300 306 306 307 306 306 308 308 308 310 311 311 310 310 312 309 313 313 313 315 316 316 315 315 318 315 313 312 317 313 310 312 314 314 315 317 318
305 306 306 305 304 305 306 297 302 304 306 307 307 308 307 308 309 309 310 311 311 311 310 307 311 313 313 313 314 316 311 311 310 308 309 311 311 311 310 310 311 312 313 313 314
305 305 304 303 304 306 301 305 303 307 308 308 309 308 308 308 309 309 310 310 311 310 310 310 309 311 313 312 314 313 312 311 307 311 315 311 312 311 310 311 310 309 310 311 313
305 305 304 304 304 306 299 302 308 309 309 310 311 310 308 308 308 309 311 310 310 310 310 310 308 311 311 312 315 314 313 312 309 309 311 312 310 305 307 307 308 310 312 312 311
307 306 304 304 306 304 304 308 309 309 310 310 310 311 307 308 309 310 312 312 311 310 311 309 309 310 313 312 313 314 315 312 307 310 305 307 309 307 308 308 310 312 312 312 312
305 304 305 305 305 303 305 310 310 309 309 310 311 310 310 311 312 311 311 311 311 310 310 310 307 312 310 310 310 313 313 314 310 307 307 308 308 307 308 309 312 312 313 313 313
305 305 304 305 305 305 308 310 311 310 310 310 310 309 310 311 310 311 311 312 312 311 310 309 308 306 306 308 309 313 313 313 310 306 312 310 312 310 308 308 308 310 312 312 313
306 302 305 305 303 304 307 309 310 310 310 309 310 310 310 311 311 312 311 312 312 311 310 308 308 303 309 310 309 311 312 312 308 311 311 313 311 311 309 308 310 312 313 312 312
306 304 304 302 304 303 306 309 309 309 309 310 310 309 309 309 310 311 310 310 310 310 310 307 307 304 306 309 309 310 309 309 310 311 311 311 312 311 311 310 311 311 311 311 311
304 307 307 304 303 304 306 308 310 309 310 310 309 308 308 307 307 308 308 308 310 309 309 309 307 305 306 307 306 307 307 308 309 309 310 311 311 310 310 310 311 311 310 311 311
Wind_Speed
18 15 12 14 19 22 11 10 16 13 13 11 10 8 8 7 7 7 10 6 5 9 11 15 11 13 17 14 15 16 5 11 6 10 5 5 4 1 7 12 6 15 17 31 36
18 16 11 16 19 19 16 8 12 13 12 10 9 8 7 7 7 8 5 5 9 14 13 14 17 12 17 12 10 5 8 13 4 3 2 4 3 7 6 8 5 17 23 35 37
19 16 12 16 20 17 19 10 9 12 12 9 8 7 6 5 5 3 4 5 9 17 18 13 16 12 13 16 14 16 11 6 4 3 3 4 3 2 14 3 6 27 37 39 43
19 16 13 14 19 15 18 10 9 10 11 8 6 5 3 2 2 5 9 10 12 11 12 13 15 7 4 14 18 9 25 9 4 2 3 2 4 5 1 8 14 20 34 38 38
19 16 15 12 17 16 16 11 7 9 11 8 5 4 2 3 4 5 11 13 9 12 16 19 16 12 9 8 11 15 13 18 10 4 5 4 9 1 9 14 15 14 20 31 35
19 18 16 11 15 15 14 15 9 9 9 7 5 4 3 3 1 6 9 13 10 11 8 13 11 21 8 6 15 10 19 19 9 2 4 4 5 5 4 9 13 15 18 22 32
19 19 16 12 15 16 12 17 9 9 7 6 4 5 7 6 5 7 10 11 11 12 6 6 12 13 13 6 18 10 12 12 13 8 2 3 1 1 3 7 11 12 15 19 25
19 17 15 12 16 14 15 10 4 5 6 4 3 4 6 2 2 6 10 11 11 9 4 6 4 14 11 2 2 14 8 8 13 17 2 8 2 3 5 4 11 11 13 16 20
18 17 15 13 14 14 9 1 1 0 1 2 2 3 6 4 4 11 6 9 11 9 2 5 8 6 7 3 6 10 8 9 6 16 6 5 3 10 8 4 7 13 12 14 18
17 16 16 15 12 9 1 3 4 6 4 3 1 5 3 3 7 8 5 9 11 11 3 1 4 1 2 2 11 8 9 9 8 5 13 12 3 11 8 9 10 13 14 14 15
16 15 16 13 9 1 3 7 5 2 2 1 5 7 9 12 6 7 9 10 10 3 3 2 3 5 7 8 1 11 13 10 11 10 5 8 4 8 8 8 17 17 14 15 15
15 14 14 9 4 3 7 7 5 3 2 1 3 6 6 8 5 6 9 4 2 3 4 3 2 8 5 8 4 8 14 7 11 15 5 8 6 6 4 10 19 26 18 17 15
14 13 11 4 5 7 10 6 5 4 1 2 5 3 6 7 4 7 4 4 2 2 2 1 3 10 5 4 4 5 13 11 9 7 6 7 4 9 8 23 30 28 25 25 24
13 11 7 9 7 8 5 5 5 6 4 8 4 2 4 5 3 5 4 2 1 2 2 4 4 9 9 2 4 6 7 13 15 7 2 1 2 8 13 12 12 26 29 30 31
12 8 5 11 11 7 4 5 8 5 5 5 6 7 2 1 6 3 6 3 4 5 4 1 9 9 4 4 3 4 10 11 17 9 5 2 2 6 4 15 14 18 34 33 26
10 7 11 14 12 8 8 13 9 5 1 5 4 4 1 4 2 6 3 3 2 4 11 7 3 4 4 4 4 7 10 11 9 3 1 7 6 4 5 11 15 11 29 33 30
9 9 16 13 10 10 15 10 4 5 2 4 3 3 3 3 2 2 4 4 3 5 8 6 6 6 6 6 10 12 6 3 2 2 3 7 8 9 8 6 9 12 28 30 30
14 19 16 13 12 17 13 4 6 3 4 1 3 5 1 3 2 2 3 4 5 5 3 3 4 6 7 4 4 4 4 3 4 4 3 5 5 6 4 5 4 6 10 18 24
24 20 16 15 17 13 5 4 7 6 6 6 1 2 4 1 2 3 2 2 2 4 5 4 5 4 3 3 2 3 4 3 6 4 4 3 5 5 3 4 5 7 6 4 6
28 20 16 17 18 11 3 3 3 5 6 4 4 4 1 1 2 3 2 3 3 4 2 3 4 2 3 1 1 2 2 3 4 3 2 3 4 3 2 5 1 2 1 1 2
27 11 16 16 14 4 3 5 4 6 8 6 3 3 3 3 2 2 3 5 5 6 7 3 4 4 4 4 2 4 3 4 3 3 4 3 5 5 8 7 8 5 3 1 1
15 4 19 17 5 3 3 5 5 6 3 2 2 2 5 4 2 4 3 3 3 2 4 3 3 3 1 3 1 1 2 3 4 3 1 2 5 5 4 6 10 7 6 6 4
11 7 16 19 4 3 4 4 4 4 5 5 3 3 1 2 4 4 3 3 5 5 2 1 2 3 7 5 4 2 1 3 4 3 2 3 4 4 3 3 7 6 3 2 2
10 4 5 10 5 3 4 4 4 5 3 3 2 3 3 2 4 4 2 0 2 3 2 3 3 5 5 5 2 2 2 3 4 3 3 5 3 3 4 5 6 4 6 9 9
6 5 8 7 6 4 2 6 6 5 1 5 1 2 2 2 3 4 3 3 2 3 2 3 3 2 3 4 4 3 3 3 5 5 4 2 6 7 6 6 6 16 20 14 18
9 6 9 8 8 7 4 7 7 4 5 3 4 4 4 4 2 4 5 2 4 1 2 2 1 2 3 3 4 3 5 6 6 3 7 9 13 9 19 15 16 12 5 8 12
7 10 7 7 5 5 4 7 7 9 3 5 7 6 5 5 7 6 4 3 5 6 2 2 3 2 3 4 5 5 5 4 3 3 4 7 9 6 6 9 15 12 7 9 11
Wind_Direction
338 335 326 322 316 321 314 315 315 320 317 319 319 317 314 313 303 283 273 282 245 269 266 264 246 241 231 244 238 222 233 204 194 169 233 170 150 148 124 125 124 167 150 161 170
333 333 335 321 319 324 320 285 307 316 314 317 316 313 315 309 307 297 306 260 281 278 264 257 247 226 224 228 232 246 213 209 166 161 241 303 146 131 120 114 92 137 152 159 160
329 327 329 318 317 324 311 279 293 306 312 315 316 321 312 308 321 26 359 318 279 298 272 253 242 230 225 219 210 198 208 194 159 109 34 311 97 75 127 51 189 145 158 161 166
324 321 320 315 312 320 309 288 282 298 306 310 317 321 318 320 262 341 335 322 304 305 266 255 236 207 218 216 220 223 239 233 138 154 25 356 343 71 52 135 146 155 162 169 177
319 316 320 312 309 312 308 302 287 273 297 304 309 319 309 293 269 324 319 302 276 290 295 252 222 211 216 200 238 228 199 220 267 190 55 32 56 351 100 135 144 159 169 177 183
314 316 321 317 305 313 303 302 261 263 295 291 291 308 303 285 229 308 313 302 292 309 290 218 221 207 300 261 198 216 223 208 203 205 64 70 360 46 114 139 141 163 172 181 190
310 313 319 322 305 301 299 291 252 258 276 281 272 296 291 277 275 300 305 309 304 323 313 207 212 187 202 216 224 233 202 191 207 224 121 62 108 118 351 164 150 166 176 178 185
306 312 317 311 300 309 288 295 271 252 282 270 256 293 269 16 327 281 311 312 307 319 260 242 226 199 235 269 186 207 208 168 192 191 95 65 168 247 351 180 179 165 181 187 185
303 309 312 307 303 291 310 270 96 302 210 162 167 319 277 300 266 313 295 302 308 301 314 312 177 192 143 197 151 184 186 172 169 155 119 119 289 295 292 348 256 186 172 190 189
298 303 308 311 299 313 294 131 105 123 100 113 157 302 321 336 282 298 292 289 296 302 279 141 133 75 58 239 173 165 172 177 149 145 127 155 165 285 274 306 285 209 185 182 187
292 297 306 310 305 56 164 123 108 111 117 202 267 264 297 323 302 255 289 307 277 315 352 280 161 191 152 234 331 155 151 140 144 162 113 127 199 278 306 308 290 259 199 196 189
283 292 305 306 293 202 168 122 122 163 231 262 328 318 306 329 303 246 303 312 313 304 270 226 186 146 190 261 289 164 145 126 130 141 93 135 243 202 292 275 257 246 202 201 206
276 289 301 285 131 151 159 133 171 177 139 317 327 324 327 311 310 316 348 328 231 249 217 205 122 144 163 217 204 105 139 122 109 145 25 131 271 238 183 232 246 244 231 225 221
267 282 289 164 141 149 179 184 186 188 72 328 352 331 327 308 275 322 352 250 31 329 122 16 326 141 183 197 100 88 124 138 131 127 92 191 278 227 230 230 230 237 235 235 233
254 270 234 164 152 178 175 170 170 181 55 291 306 312 329 243 302 352 333 296 352 22 189 80 108 149 57 36 26 107 128 136 137 120 144 153 74 255 201 226 237 236 240 243 242
236 241 179 160 157 172 173 152 148 51 311 319 293 302 37 347 321 321 333 333 2 19 57 48 9 46 3 24 54 129 93 80 69 62 155 188 200 261 184 214 222 233 237 239 241
200 184 156 153 160 171 156 146 55 93 259 271 263 297 244 246 256 321 338 10 30 54 28 21 21 324 11 47 30 114 83 103 153 143 200 154 184 261 268 249 207 209 226 235 239
169 162 163 160 162 160 153 69 79 201 185 271 272 285 195 322 297 160 334 27 7 57 69 77 56 7 342 47 126 66 118 163 143 173 160 127 221 260 266 256 186 211 233 235 238
162 157 166 166 166 166 147 71 179 196 174 165 280 298 317 30 108 6 31 75 326 28 118 105 46 330 71 71 163 233 173 217 103 30 73 211 274 285 51 78 115 124 135 169 224
156 146 153 159 166 170 87 203 162 168 133 136 191 202 184 271 58 41 47 346 351 31 340 165 86 325 307 359 223 168 234 40 14 119 199 311 300 250 251 206 124 96 145 185 203
145 129 158 160 162 170 177 211 173 180 171 165 183 157 234 200 207 63 28 350 11 349 14 65 63 314 11 20 21 6 19 45 107 107 152 161 258 214 214 183 167 182 177 189 292
138 110 163 159 165 171 188 176 141 158 153 126 152 222 183 196 95 64 96 68 56 47 39 19 103 79 108 290 248 128 69 82 108 298 40 143 277 345 152 177 147 151 119 95 94
109 101 168 174 177 225 253 132 128 147 182 165 215 225 43 142 92 94 79 15 54 47 76 354 39 62 347 353 8 9 282 108 102 69 231 121 272 353 8 231 184 184 211 246 266
128 124 160 207 249 204 159 153 126 161 154 164 160 60 55 60 53 128 109 112 68 68 62 112 105 146 172 210 180 289 260 171 123 119 190 215 280 341 282 276 330 333 322 303 275
140 163 174 179 220 214 209 149 132 139 139 163 66 135 158 108 81 102 56 45 17 5 54 87 96 96 208 191 138 206 254 214 191 200 168 269 212 241 248 250 264 308 313 292 273
141 143 166 163 157 161 228 183 152 134 134 186 157 151 119 123 152 138 123 178 204 354 58 34 154 103 11 353 196 258 245 233 246 226 252 264 271 243 263 264 276 279 275 290 267
156 149 147 140 129 150 204 169 169 127 53 123 143 108 97 155 117 102 99 153 185 146 151 97 123 77 284 359 360 331 273 221 259 237 208 262 261 277 260 269 281 286 266 274 275